| time (UTC) | temp C | wind direction | speed KPH | gust KPH | rain 1hr cm | rain 24hr cm | rain mn cm | humidity % | barometer mb |
| 20260901062355 | 15 | 109 | 0.0 | 0.0 | 0.00 | 0.00 | 0.00 | 85 | 1007.0 |
| 20260901061322 | 15 | 108 | 0.0 | 0.0 | 0.00 | 0.00 | 0.00 | 84 | 1007.0 |
| 20260901060305 | 15 | 109 | 0.0 | 0.0 | 0.00 | 0.00 | 0.00 | 83 | 1007.0 |
| 20260901055256 | 15 | 109 | 0.0 | 0.0 | 0.00 | 0.00 | 0.00 | 82 | 1007.2 |
| 20260901054244 | 15 | 108 | 0.0 | 0.0 | 0.00 | 0.00 | 0.00 | 83 | 1007.1 |
| 20260901053228 | 15 | 108 | 0.0 | 0.0 | 0.00 | 0.00 | 0.00 | 82 | 1007.2 |
| 20260901052226 | 16 | 108 | 0.0 | 0.0 | 0.00 | 0.00 | 0.00 | 81 | 1007.2 |
| 20260901051159 | 16 | 109 | 0.0 | 0.0 | 0.00 | 0.00 | 0.00 | 79 | 1007.1 |
| 20260901050158 | 16 | 108 | 0.0 | 0.0 | 0.00 | 0.00 | 0.00 | 80 | 1007.2 |
| 20260901045151 | 16 | 108 | 0.0 | 0.0 | 0.00 | 0.00 | 0.00 | 79 | 1007.2 |
| 20260901044138 | 16 | 108 | 0.0 | 0.0 | 0.00 | 0.00 | 0.00 | 78 | 1007.4 |
| 20260901043118 | 17 | 108 | 0.0 | 0.0 | 0.00 | 0.00 | 0.00 | 76 | 1007.1 |
| 20260901042047 | 17 | 108 | 0.0 | 0.0 | 0.00 | 0.00 | 0.00 | 75 | 1007.4 |
| 20260901041016 | 17 | 107 | 0.0 | 0.0 | 0.00 | 0.00 | 0.00 | 76 | 1007.2 |
| 20260901040002 | 17 | 105 | 0.0 | 0.0 | 0.00 | 0.00 | 0.00 | 73 | 1007.2 |
| 20260901034923 | 17 | 101 | 0.0 | 0.0 | 0.00 | 0.00 | 0.00 | 73 | 1007.0 |
| 20260901033912 | 18 | 108 | 0.0 | 0.0 | 0.00 | 0.00 | 0.00 | 72 | 1006.9 |
| 20260901032840 | 18 | 102 | 0.0 | 0.0 | 0.00 | 0.00 | 0.00 | 72 | 1006.7 |
| 20260901031822 | 18 | 104 | 0.0 | 0.0 | 0.00 | 0.00 | 0.00 | 71 | 1006.8 |
| 20260901030743 | 18 | 102 | 0.0 | 0.0 | 0.00 | 0.00 | 0.00 | 69 | 1006.6 |
| 20260901025730 | 19 | 102 | 0.0 | 0.0 | 0.00 | 0.00 | 0.00 | 67 | 1006.6 |
| 20260901024705 | 20 | 104 | 0.0 | 0.0 | 0.00 | 0.00 | 0.00 | 64 | 1006.5 |
| 20260901023647 | 20 | 85 | 0.0 | 1.6 | 0.00 | 0.00 | 0.00 | 63 | 1006.8 |
| 20260901022624 | 20 | 71 | 3.2 | 4.8 | 0.00 | 0.00 | 0.00 | 62 | 1006.8 |
| 20260901021602 | 21 | 60 | 3.2 | 4.8 | 0.00 | 0.00 | 0.00 | 62 | 1006.7 |
| 20260901020529 | 21 | 99 | 1.6 | 1.6 | 0.00 | 0.00 | 0.00 | 61 | 1006.8 |
| 20260901015521 | 21 | 90 | 0.0 | 0.0 | 0.00 | 0.00 | 0.00 | 61 | 1006.7 |
| 20260901014457 | 22 | 82 | 0.0 | 0.0 | 0.00 | 0.00 | 0.00 | 60 | 1006.8 |
| 20260901013418 | 22 | 93 | 0.0 | 0.0 | 0.00 | 0.00 | 0.00 | 59 | 1006.8 |
| 20260901012409 | 23 | 88 | 4.8 | 4.8 | 0.00 | 0.00 | 0.00 | 56 | 1006.7 |
| 20260901011357 | 23 | 104 | 1.6 | 1.6 | 0.00 | 0.00 | 0.00 | 56 | 1006.9 |
| 20260901010333 | 22 | 89 | 3.2 | 4.8 | 0.00 | 0.00 | 0.00 | 56 | 1006.7 |
| 20260901005308 | 23 | 128 | 1.6 | 3.2 | 0.00 | 0.00 | 0.00 | 54 | 1006.7 |
| 20260901004305 | 23 | 275 | 3.2 | 4.8 | 0.00 | 0.00 | 0.00 | 53 | 1006.5 |
| 20260901003231 | 24 | 98 | 1.6 | 1.6 | 0.00 | 0.00 | 0.00 | 51 | 1006.6 |
| 20260901002222 | 25 | 136 | 0.0 | 3.2 | 0.00 | 0.00 | 0.00 | 50 | 1006.7 |
| 20260901001201 | 25 | 237 | 6.4 | 9.7 | 0.00 | 0.00 | 0.00 | 48 | 1006.9 |
| 20260901000136 | 26 | 105 | 0.0 | 0.0 | 0.00 | 0.00 | 0.00 | 49 | 1006.9 |
| 20260831235133 | 25 | 87 | 1.6 | 1.6 | 0.00 | 0.00 | 0.00 | 49 | 1007.0 |
| 20260831234109 | 25 | 89 | 3.2 | 3.2 | 0.00 | 0.00 | 0.00 | 49 | 1007.1 |
| 20260831233053 | 25 | 82 | 4.8 | 4.8 | 0.00 | 0.00 | 0.00 | 49 | 1007.3 |
| 20260831232014 | 25 | 40 | 1.6 | 3.2 | 0.00 | 0.00 | 0.00 | 50 | 1007.3 |
| 20260831230952 | 25 | 65 | 3.2 | 4.8 | 0.00 | 0.00 | 0.00 | 49 | 1007.3 |
| 20260831225946 | 25 | 63 | 3.2 | 3.2 | 0.00 | 0.00 | 0.00 | 50 | 1007.7 |
| 20260831224925 | 25 | 137 | 0.0 | 1.6 | 0.00 | 0.00 | 0.00 | 49 | 1007.6 |
| 20260831223910 | 25 | 357 | 6.4 | 9.7 | 0.00 | 0.00 | 0.00 | 49 | 1007.8 |
| 20260831222905 | 25 | 72 | 3.2 | 3.2 | 0.00 | 0.00 | 0.00 | 50 | 1007.8 |
| 20260831221858 | 25 | 131 | 1.6 | 3.2 | 0.00 | 0.00 | 0.00 | 50 | 1007.9 |
| 20260831220816 | 23 | 105 | 0.0 | 0.0 | 0.00 | 0.00 | 0.00 | 53 | 1008.1 |
| 20260831215759 | 23 | 78 | 4.8 | 4.8 | 0.00 | 0.00 | 0.00 | 52 | 1008.4 |
| 20260831214730 | 23 | 31 | 3.2 | 3.2 | 0.00 | 0.00 | 0.00 | 53 | 1008.3 |
| 20260831213721 | 23 | 9 | 6.4 | 6.4 | 0.00 | 0.00 | 0.00 | 52 | 1008.2 |
| 20260831212705 | 23 | 159 | 1.6 | 4.8 | 0.00 | 0.00 | 0.00 | 53 | 1008.5 |
| 20260831211650 | 23 | 104 | 0.0 | 0.0 | 0.00 | 0.00 | 0.00 | 55 | 1008.8 |
| 20260831210632 | 23 | 275 | 3.2 | 3.2 | 0.00 | 0.00 | 0.00 | 53 | 1008.6 |
| 20260831205621 | 22 | 355 | 6.4 | 6.4 | 0.00 | 0.00 | 0.00 | 55 | 1008.9 |
| 20260831204551 | 22 | 135 | 4.8 | 6.4 | 0.00 | 0.00 | 0.00 | 56 | 1009.0 |
| 20260831203548 | 22 | 103 | 1.6 | 3.2 | 0.00 | 0.00 | 0.00 | 57 | 1009.1 |
| 20260831202530 | 21 | 135 | 3.2 | 6.4 | 0.00 | 0.00 | 0.00 | 58 | 1009.3 |
| 20260831201458 | 22 | 124 | 0.0 | 0.0 | 0.00 | 0.00 | 0.00 | 58 | 1009.1 |
| 20260831200430 | 21 | 329 | 4.8 | 4.8 | 0.00 | 0.00 | 0.00 | 60 | 1009.5 |
| 20260831195411 | 21 | 287 | 3.2 | 4.8 | 0.00 | 0.00 | 0.00 | 59 | 1009.7 |
| 20260831194347 | 21 | 101 | 3.2 | 3.2 | 0.00 | 0.00 | 0.00 | 61 | 1009.9 |
| 20260831193335 | 21 | 177 | 3.2 | 3.2 | 0.00 | 0.00 | 0.00 | 61 | 1009.9 |
| 20260831192312 | 21 | 21 | 6.4 | 9.7 | 0.00 | 0.00 | 0.00 | 61 | 1010.0 |
| 20260831191257 | 21 | 26 | 3.2 | 6.4 | 0.00 | 0.00 | 0.00 | 60 | 1010.2 |
| 20260831190250 | 20 | 110 | 3.2 | 3.2 | 0.00 | 0.00 | 0.00 | 62 | 1010.3 |
| 20260831185231 | 20 | 97 | 3.2 | 4.8 | 0.00 | 0.00 | 0.00 | 62 | 1010.6 |
| 20260831184159 | 20 | 104 | 1.6 | 3.2 | 0.00 | 0.00 | 0.00 | 64 | 1010.8 |
| 20260831183137 | 19 | 102 | 1.6 | 3.2 | 0.00 | 0.00 | 0.00 | 66 | 1010.9 |
| 20260831182120 | 19 | 97 | 1.6 | 1.6 | 0.00 | 0.00 | 0.00 | 68 | 1010.9 |
| 20260831181101 | 18 | 188 | 3.2 | 4.8 | 0.00 | 0.00 | 0.00 | 69 | 1011.0 |
| 20260831180041 | 19 | 68 | 1.6 | 3.2 | 0.00 | 0.00 | 0.00 | 70 | 1011.2 |
| 20260831175032 | 18 | 6 | 3.2 | 4.8 | 0.00 | 0.00 | 0.00 | 73 | 1011.2 |
| 20260831174012 | 17 | 96 | 3.2 | 4.8 | 0.00 | 0.00 | 0.00 | 73 | 1011.4 |
| 20260831172957 | 17 | 107 | 0.0 | 1.6 | 0.00 | 0.00 | 0.00 | 75 | 1011.4 |
| 20260831171947 | 17 | 106 | 0.0 | 0.0 | 0.00 | 0.00 | 0.00 | 75 | 1011.3 |
| 20260831170923 | 17 | 96 | 0.0 | 0.0 | 0.00 | 0.00 | 0.00 | 77 | 1011.6 |
| 20260831165917 | 16 | 100 | 0.0 | 0.0 | 0.00 | 0.00 | 0.00 | 79 | 1011.6 |
| 20260831164917 | 15 | 93 | 0.0 | 0.0 | 0.00 | 0.00 | 0.00 | 82 | 1011.8 |
| 20260831163906 | 15 | 115 | 1.6 | 1.6 | 0.00 | 0.00 | 0.00 | 83 | 1011.8 |
| 20260831162841 | 15 | 97 | 0.0 | 1.6 | 0.00 | 0.00 | 0.00 | 83 | 1011.9 |
| 20260831161830 | 14 | 109 | 1.6 | 1.6 | 0.00 | 0.00 | 0.00 | 83 | 1012.2 |
| 20260831160801 | 13 | 88 | 1.6 | 1.6 | 0.00 | 0.00 | 0.00 | 84 | 1012.3 |
| 20260831155746 | 13 | 99 | 0.0 | 0.0 | 0.00 | 0.00 | 0.00 | 85 | 1012.1 |
| 20260831154742 | 13 | 85 | 1.6 | 1.6 | 0.00 | 0.00 | 0.00 | 87 | 1012.3 |
| 20260831153724 | 12 | 91 | 0.0 | 0.0 | 0.00 | 0.00 | 0.00 | 88 | 1012.5 |
| 20260831152716 | 12 | 98 | 0.0 | 0.0 | 0.00 | 0.00 | 0.00 | 90 | 1012.6 |
| 20260831151654 | 11 | 96 | 0.0 | 0.0 | 0.00 | 0.00 | 0.00 | 94 | 1012.4 |
| 20260831150624 | 11 | 102 | 0.0 | 0.0 | 0.00 | 0.00 | 0.00 | 97 | 1012.5 |
| 20260831145550 | 10 | 103 | 0.0 | 0.0 | 0.00 | 0.00 | 0.00 | 98 | 1012.6 |
| 20260831144548 | 10 | 103 | 0.0 | 0.0 | 0.00 | 0.00 | 0.00 | 98 | 1012.3 |
| 20260831143519 | 10 | 104 | 0.0 | 0.0 | 0.00 | 0.00 | 0.00 | 98 | 1012.5 |
| 20260831142453 | 10 | 107 | 0.0 | 0.0 | 0.00 | 0.00 | 0.00 | 98 | 1012.4 |
| 20260831141432 | 9 | 106 | 0.0 | 0.0 | 0.00 | 0.00 | 0.00 | 98 | 1012.3 |
| 20260831140424 | 9 | 107 | 0.0 | 0.0 | 0.00 | 0.00 | 0.00 | 98 | 1012.5 |
| 20260831135402 | 9 | 106 | 0.0 | 0.0 | 0.00 | 0.00 | 0.00 | 98 | 1012.5 |
| 20260831134348 | 9 | 107 | 0.0 | 0.0 | 0.00 | 0.00 | 0.00 | 98 | 1012.4 |
| 20260831133337 | 9 | 106 | 0.0 | 0.0 | 0.00 | 0.00 | 0.00 | 97 | 1012.3 |
| 20260831132313 | 9 | 107 | 0.0 | 0.0 | 0.00 | 0.00 | 0.00 | 97 | 1012.3 |
| 20260831131257 | 9 | 107 | 0.0 | 0.0 | 0.00 | 0.00 | 0.00 | 97 | 1012.5 |
| 20260831130235 | 9 | 107 | 0.0 | 0.0 | 0.00 | 0.00 | 0.00 | 97 | 1012.5 |
| 20260831125222 | 9 | 107 | 0.0 | 0.0 | 0.00 | 0.00 | 0.00 | 97 | 1012.6 |
| 20260831124222 | 10 | 107 | 0.0 | 0.0 | 0.00 | 0.00 | 0.00 | 97 | 1012.7 |
| 20260831123206 | 10 | 107 | 0.0 | 0.0 | 0.00 | 0.00 | 0.00 | 97 | 1012.7 |
| 20260831122200 | 10 | 107 | 0.0 | 0.0 | 0.00 | 0.00 | 0.00 | 97 | 1012.8 |
| 20260831121140 | 10 | 107 | 0.0 | 0.0 | 0.00 | 0.00 | 0.00 | 96 | 1012.9 |
| 20260831120130 | 10 | 107 | 0.0 | 0.0 | 0.00 | 0.00 | 0.00 | 96 | 1012.7 |
| 20260831115112 | 10 | 107 | 0.0 | 0.0 | 0.00 | 0.00 | 0.00 | 96 | 1013.0 |
| 20260831114044 | 10 | 109 | 0.0 | 0.0 | 0.00 | 0.00 | 0.00 | 96 | 1012.8 |
| 20260831113038 | 10 | 106 | 0.0 | 0.0 | 0.00 | 0.00 | 0.00 | 96 | 1013.0 |
| 20260831112031 | 10 | 106 | 0.0 | 0.0 | 0.00 | 0.00 | 0.00 | 95 | 1013.1 |
| 20260831111021 | 10 | 106 | 0.0 | 0.0 | 0.00 | 0.00 | 0.00 | 95 | 1013.0 |
| 20260831110007 | 11 | 106 | 0.0 | 0.0 | 0.00 | 0.00 | 0.00 | 95 | 1013.2 |
| 20260831105000 | 10 | 106 | 0.0 | 0.0 | 0.00 | 0.00 | 0.00 | 95 | 1013.2 |
| 20260831103948 | 11 | 106 | 0.0 | 0.0 | 0.00 | 0.00 | 0.00 | 95 | 1013.4 |
| 20260831102919 | 10 | 106 | 0.0 | 0.0 | 0.00 | 0.00 | 0.00 | 95 | 1013.5 |
| 20260831101902 | 11 | 106 | 0.0 | 0.0 | 0.00 | 0.00 | 0.00 | 94 | 1013.5 |
| 20260831100902 | 11 | 109 | 0.0 | 0.0 | 0.00 | 0.00 | 0.00 | 94 | 1013.5 |
| 20260831095839 | 11 | 109 | 0.0 | 0.0 | 0.00 | 0.00 | 0.00 | 93 | 1013.6 |
| 20260831094837 | 11 | 109 | 0.0 | 0.0 | 0.00 | 0.00 | 0.00 | 93 | 1013.7 |
| 20260831093830 | 11 | 109 | 0.0 | 0.0 | 0.00 | 0.00 | 0.00 | 92 | 1014.0 |
| 20260831092817 | 11 | 109 | 0.0 | 0.0 | 0.00 | 0.00 | 0.00 | 92 | 1014.0 |
| 20260831091753 | 11 | 108 | 0.0 | 0.0 | 0.00 | 0.00 | 0.00 | 92 | 1014.1 |
| 20260831090721 | 11 | 108 | 0.0 | 0.0 | 0.00 | 0.00 | 0.00 | 91 | 1014.2 |
| 20260831085706 | 11 | 108 | 0.0 | 0.0 | 0.00 | 0.00 | 0.00 | 92 | 1014.2 |
| 20260831084704 | 11 | 108 | 0.0 | 0.0 | 0.00 | 0.00 | 0.00 | 91 | 1014.4 |
| 20260831083631 | 11 | 109 | 0.0 | 0.0 | 0.00 | 0.00 | 0.00 | 91 | 1014.3 |
| 20260831082602 | 11 | 108 | 0.0 | 0.0 | 0.00 | 0.00 | 0.00 | 91 | 1014.5 |
| 20260831081548 | 11 | 108 | 0.0 | 0.0 | 0.00 | 0.00 | 0.00 | 91 | 1014.5 |
| 20260831080529 | 11 | 108 | 0.0 | 0.0 | 0.00 | 0.00 | 0.00 | 91 | 1014.5 |
| 20260831075519 | 12 | 108 | 0.0 | 0.0 | 0.00 | 0.00 | 0.00 | 90 | 1014.6 |
| 20260831074453 | 12 | 108 | 0.0 | 0.0 | 0.00 | 0.00 | 0.00 | 89 | 1014.7 |
| 20260831073450 | 12 | 108 | 0.0 | 0.0 | 0.00 | 0.00 | 0.00 | 89 | 1014.8 |
| 20260831072429 | 12 | 108 | 0.0 | 0.0 | 0.00 | 0.00 | 0.00 | 89 | 1014.8 |
| 20260831071422 | 12 | 108 | 0.0 | 0.0 | 0.00 | 0.00 | 0.00 | 87 | 1014.9 |
| 20260831070348 | 12 | 108 | 0.0 | 0.0 | 0.00 | 0.00 | 0.00 | 86 | 1015.1 |
| 20260831065331 | 12 | 109 | 0.0 | 0.0 | 0.00 | 0.00 | 0.00 | 85 | 1014.9 |
| 20260831064307 | 13 | 109 | 0.0 | 0.0 | 0.00 | 0.00 | 0.00 | 84 | 1015.1 |
| 20260831063248 | 13 | 109 | 0.0 | 0.0 | 0.00 | 0.00 | 0.00 | 83 | 1015.3 |